Location: Unspecified
(0.0000°N, 0.0000°E)
Time: 02:54:50

YUBILEINY - Pass Details

Date: 11 December 2017
Orbit: 1478 x 1509 km, 82.5° (Epoch: 22 March)

Event Time Altitude Azimuth Distance (km) Brightness Sun altitude
Rises 02:24:12 0° 168° (SSE) 4,611 ? -46.7°
Reaches altitude 10° 02:27:17 10° 161° (SSE) 3,633 ? -46.1°
Maximum altitude 02:35:24 43° 93° (E) 2,000 ? -44.4°
Enters shadow 02:36:21 42° 78° (ENE) 2,032 ? -44.2°
